sat.trackr.live / text

‹ back to catalog

ONEWEB-0086

NORAD 45456 · 2020-020AJ

PAYLOAD ACTIVE UNKNOWN

§ Identity

Operator
Country
UK
Launch date
2020-03-21
Launch site
TYMSC
Launch vehicle
Mass (kg)
RCS (m²)

Purposes: comms

External: N2YO · Heavens-Above · Gunter

§ Orbital elements

Epoch: 2026-09-20T05:13:05.761056Z

Period
109.81 min
Inclination
87.8976°
Eccentricity
0.0001955
Mean motion
13.11414880 rev/d
Perigee alt
1,216.2 km
Apogee alt
1,219.2 km
Semi-major
7,595.8 km
B*
-8.2689e-4
RAAN
2.1785°
Arg perigee
78.7643°
Mean anomaly
281.3704°
Rev number
31,506

§ Raw data

ONEWEB-00861 45456U 20020AJ  26263.21742779 -.00000280  00000+0 -82689-3 0  99932 45456  87.8976   2.1785 0001955  78.7643 281.3704 13.11414880315060

JSON: /api/v1/satellites/45456 · /tle

For live sub-satellite position, see the globe view (requires WebGL).

§ Visibility from observer

Set your observer location to see the next 7 days of passes ≥ 10°. The values pass through the URL so the page stays shareable.

No JS? Fill the form by hand. The geolocation button needs JavaScript.